Time,TemperatureF,DewpointF,PressureIn,WindDirection,WindDirectionDegrees,WindSpeedMPH,WindSpeedGustMPH,Humidity,HourlyPrecipIn,Conditions,Clouds,dailyrainin,SoftwareType,DateUTC
2013-05-04 00:01:00,51.3,32.8,29.97,WSW,248,1.1,2.9,49,0.00,,,0.00,WUHU216HW,2013-05-04 05:01:00,
2013-05-04 00:06:00,51.1,32.7,29.97,SW,225,2.2,2.2,49,0.00,,,0.00,WUHU216HW,2013-05-04 05:06:00,
2013-05-04 00:11:00,50.9,32.0,29.97,SW,225,1.6,2.2,48,0.00,,,0.00,WUHU216HW,2013-05-04 05:11:00,
2013-05-04 00:16:00,50.9,32.5,29.96,WSW,248,1.6,1.8,49,0.00,,,0.00,WUHU216HW,2013-05-04 05:16:00,
2013-05-04 00:21:00,50.8,33.3,29.97,WSW,248,2.0,2.0,51,0.00,,,0.00,WUHU216HW,2013-05-04 05:21:00,
2013-05-04 00:26:00,50.4,32.6,29.97,WSW,248,1.3,2.0,50,0.00,,,0.00,WUHU216HW,2013-05-04 05:26:00,
2013-05-04 00:31:00,50.0,32.2,29.96,WSW,248,0.4,2.0,50,0.00,,,0.00,WUHU216HW,2013-05-04 05:31:00,
2013-05-04 00:36:00,49.9,32.0,29.96,WSW,248,0.9,1.3,50,0.00,,,0.00,WUHU216HW,2013-05-04 05:36:00,
2013-05-04 00:41:00,49.7,32.3,29.96,WSW,248,1.1,1.8,51,0.00,,,0.00,WUHU216HW,2013-05-04 05:41:00,
2013-05-04 00:46:00,49.7,32.3,29.96,WSW,248,1.3,2.5,51,0.00,,,0.00,WUHU216HW,2013-05-04 05:46:00,
2013-05-04 00:51:00,49.5,32.1,29.96,SW,225,1.1,2.7,51,0.00,,,0.00,WUHU216HW,2013-05-04 05:51:00,
2013-05-04 00:56:00,49.5,32.1,29.96,WSW,248,1.3,2.7,51,0.00,,,0.00,WUHU216HW,2013-05-04 05:56:00,
2013-05-04 01:01:00,49.5,32.1,29.96,WSW,248,1.8,2.7,51,0.00,,,0.00,WUHU216HW,2013-05-04 06:01:00,
2013-05-04 01:06:00,49.3,32.0,29.96,SSW,203,1.8,2.7,51,0.00,,,0.00,WUHU216HW,2013-05-04 06:06:00,
2013-05-04 01:11:00,49.3,32.0,29.95,SW,225,1.1,2.0,51,0.00,,,0.00,WUHU216HW,2013-05-04 06:11:00,
2013-05-04 01:16:00,49.1,31.8,29.95,WSW,248,1.6,1.8,51,0.00,,,0.00,WUHU216HW,2013-05-04 06:16:00,
2013-05-04 01:21:00,49.0,31.6,29.95,WSW,248,1.8,2.0,51,0.00,,,0.00,WUHU216HW,2013-05-04 06:21:00,
2013-05-04 01:26:00,48.8,31.9,29.95,WSW,248,1.1,2.2,52,0.00,,,0.00,WUHU216HW,2013-05-04 06:26:00,
2013-05-04 01:31:00,48.6,31.7,29.95,WSW,248,1.3,2.2,52,0.00,,,0.00,WUHU216HW,2013-05-04 06:31:00,
2013-05-04 01:36:00,48.4,33.0,29.95,SSW,203,2.7,2.7,55,0.00,,,0.00,WUHU216HW,2013-05-04 06:36:00,
2013-05-04 01:41:00,48.1,32.1,29.95,SW,225,2.5,2.7,54,0.00,,,0.00,WUHU216HW,2013-05-04 06:41:00,
2013-05-04 01:46:00,47.9,32.0,29.94,SSW,203,1.8,2.7,54,0.00,,,0.00,WUHU216HW,2013-05-04 06:46:00,
2013-05-04 01:51:00,47.7,32.2,29.94,SW,225,1.6,2.5,55,0.00,,,0.00,WUHU216HW,2013-05-04 06:51:00,
2013-05-04 01:56:00,47.5,32.0,29.95,SW,225,2.2,2.9,55,0.00,,,0.00,WUHU216HW,2013-05-04 06:56:00,
2013-05-04 02:01:00,47.2,32.2,29.94,SW,225,1.8,2.9,56,0.00,,,0.00,WUHU216HW,2013-05-04 07:01:00,
2013-05-04 02:06:00,47.2,31.8,29.94,SSW,203,2.5,3.4,55,0.00,,,0.00,WUHU216HW,2013-05-04 07:06:00,
2013-05-04 02:11:00,47.2,31.8,29.94,SW,225,2.5,3.4,55,0.00,,,0.00,WUHU216HW,2013-05-04 07:11:00,
2013-05-04 02:16:00,47.2,31.8,29.94,SSW,203,1.3,2.9,55,0.00,,,0.00,WUHU216HW,2013-05-04 07:16:00,
2013-05-04 02:21:00,47.2,31.8,29.93,WSW,248,1.8,3.1,55,0.00,,,0.00,WUHU216HW,2013-05-04 07:21:00,
2013-05-04 02:26:00,47.2,31.8,29.93,WSW,248,2.0,3.1,55,0.00,,,0.00,WUHU216HW,2013-05-04 07:26:00,
2013-05-04 02:31:00,47.0,32.1,29.93,WSW,248,2.2,2.5,56,0.00,,,0.00,WUHU216HW,2013-05-04 07:31:00,
2013-05-04 02:36:00,47.0,32.1,29.93,SSW,203,2.2,3.4,56,0.00,,,0.00,WUHU216HW,2013-05-04 07:36:00,
2013-05-04 02:41:00,47.0,32.1,29.93,SW,225,2.5,3.4,56,0.00,,,0.00,WUHU216HW,2013-05-04 07:41:00,
2013-05-04 02:46:00,47.0,32.1,29.92,SSW,203,1.8,3.4,56,0.00,,,0.00,WUHU216HW,2013-05-04 07:46:00,
2013-05-04 02:51:00,47.0,32.1,29.92,SSW,203,3.6,4.0,56,0.00,,,0.00,WUHU216HW,2013-05-04 07:51:00,
2013-05-04 02:56:00,47.2,32.2,29.92,SSW,203,3.1,4.0,56,0.00,,,0.00,WUHU216HW,2013-05-04 07:56:00,
2013-05-04 03:01:00,47.0,32.1,29.92,SSW,203,3.4,4.0,56,0.00,,,0.00,WUHU216HW,2013-05-04 08:01:00,
2013-05-04 03:06:00,47.2,32.2,29.92,SW,225,3.4,4.0,56,0.00,,,0.00,WUHU216HW,2013-05-04 08:06:00,
2013-05-04 03:11:00,47.2,32.2,29.92,SW,225,2.5,4.0,56,0.00,,,0.00,WUHU216HW,2013-05-04 08:11:00,
2013-05-04 03:16:00,47.2,31.8,29.92,SW,225,3.8,3.8,55,0.00,,,0.00,WUHU216HW,2013-05-04 08:16:00,
2013-05-04 03:21:00,47.0,31.6,29.92,SSW,203,1.1,3.8,55,0.00,,,0.00,WUHU216HW,2013-05-04 08:21:00,
2013-05-04 03:26:00,46.6,31.7,29.92,WSW,248,1.1,3.8,56,0.00,,,0.00,WUHU216HW,2013-05-04 08:26:00,
2013-05-04 03:31:00,46.4,31.5,29.92,South,180,1.8,2.7,56,0.00,,,0.00,WUHU216HW,2013-05-04 08:31:00,
2013-05-04 03:36:00,46.1,31.1,29.92,SSW,203,2.5,3.1,56,0.00,,,0.00,WUHU216HW,2013-05-04 08:36:00,
2013-05-04 03:41:00,45.9,31.1,29.92,SSW,203,1.1,3.4,56,0.00,,,0.00,WUHU216HW,2013-05-04 08:41:00,
2013-05-04 03:46:00,45.7,31.3,29.92,SW,225,1.8,3.4,57,0.00,,,0.00,WUHU216HW,2013-05-04 08:46:00,
2013-05-04 03:51:00,45.5,31.1,29.92,SW,225,1.3,2.9,57,0.00,,,0.00,WUHU216HW,2013-05-04 08:51:00,
2013-05-04 03:56:00,45.4,31.0,29.92,SSW,203,1.1,1.8,57,0.00,,,0.00,WUHU216HW,2013-05-04 08:56:00,
2013-05-04 04:01:00,45.4,31.0,29.92,SSW,203,1.8,2.2,57,0.00,,,0.00,WUHU216HW,2013-05-04 09:01:00,
2013-05-04 04:06:00,45.2,30.8,29.92,South,180,2.2,3.1,57,0.00,,,0.00,WUHU216HW,2013-05-04 09:06:00,
2013-05-04 04:11:00,45.2,30.8,29.91,SSW,203,1.6,3.1,57,0.00,,,0.00,WUHU216HW,2013-05-04 09:11:00,
2013-05-04 04:16:00,45.0,30.7,29.91,SSW,203,1.6,3.4,57,0.00,,,0.00,WUHU216HW,2013-05-04 09:16:00,
2013-05-04 04:21:00,45.0,30.7,29.91,SSW,203,2.0,3.4,57,0.00,,,0.00,WUHU216HW,2013-05-04 09:21:00,
2013-05-04 04:26:00,45.0,30.7,29.91,SSW,203,1.8,3.1,57,0.00,,,0.00,WUHU216HW,2013-05-04 09:26:00,
2013-05-04 04:31:00,44.8,30.5,29.92,SSW,203,2.0,2.7,57,0.00,,,0.00,WUHU216HW,2013-05-04 09:31:00,
2013-05-04 04:36:00,44.8,30.5,29.91,SSW,203,2.5,3.1,57,0.00,,,0.00,WUHU216HW,2013-05-04 09:36:00,
2013-05-04 04:41:00,44.6,30.3,29.91,SSW,203,1.6,3.1,57,0.00,,,0.00,WUHU216HW,2013-05-04 09:41:00,
2013-05-04 04:46:00,44.6,30.3,29.91,SSW,203,2.7,2.7,57,0.00,,,0.00,WUHU216HW,2013-05-04 09:46:00,
2013-05-04 04:51:00,44.6,30.8,29.91,SSW,203,1.1,2.7,58,0.00,,,0.00,WUHU216HW,2013-05-04 09:51:00,
2013-05-04 04:56:00,44.6,30.8,29.91,SSW,203,1.1,2.7,58,0.00,,,0.00,WUHU216HW,2013-05-04 09:56:00,
2013-05-04 05:01:00,44.5,30.6,29.91,SW,225,0.2,2.7,58,0.00,,,0.00,WUHU216HW,2013-05-04 10:01:00,
2013-05-04 05:06:00,44.3,30.4,29.91,SSW,203,0.4,2.0,58,0.00,,,0.00,WUHU216HW,2013-05-04 10:06:00,
2013-05-04 05:11:00,44.3,30.4,29.91,SSW,203,1.1,2.0,58,0.00,,,0.00,WUHU216HW,2013-05-04 10:11:00,
2013-05-04 05:16:00,44.1,30.7,29.91,SSW,203,1.8,2.5,59,0.00,,,0.00,WUHU216HW,2013-05-04 10:16:00,
2013-05-04 05:21:00,43.9,30.5,29.91,SW,225,1.8,2.7,59,0.00,,,0.00,WUHU216HW,2013-05-04 10:21:00,
2013-05-04 05:26:00,43.6,30.2,29.91,SSW,203,1.8,2.7,59,0.00,,,0.00,WUHU216HW,2013-05-04 10:26:00,
2013-05-04 05:31:00,43.6,30.6,29.91,SSW,203,2.5,3.4,60,0.00,,,0.00,WUHU216HW,2013-05-04 10:31:00,
2013-05-04 05:36:00,43.6,30.6,29.91,South,180,2.5,3.4,60,0.00,,,0.00,WUHU216HW,2013-05-04 10:36:00,
2013-05-04 05:41:00,43.7,30.8,29.91,SSW,203,2.5,3.4,60,0.00,,,0.00,WUHU216HW,2013-05-04 10:41:00,
2013-05-04 05:46:00,43.7,30.8,29.91,SSW,203,1.8,2.9,60,0.00,,,0.00,WUHU216HW,2013-05-04 10:46:00,
2013-05-04 05:51:00,43.9,31.0,29.91,South,180,2.5,4.0,60,0.00,,,0.00,WUHU216HW,2013-05-04 10:51:00,
2013-05-04 05:56:00,44.1,31.1,29.91,SSW,203,3.6,4.0,60,0.00,,,0.00,WUHU216HW,2013-05-04 10:56:00,
2013-05-04 06:01:00,44.3,31.3,29.91,South,180,3.6,4.0,60,0.00,,,0.00,WUHU216HW,2013-05-04 11:01:00,
2013-05-04 06:06:00,44.3,31.3,29.91,SW,225,2.9,4.0,60,0.00,,,0.00,WUHU216HW,2013-05-04 11:06:00,
2013-05-04 06:11:00,44.5,31.5,29.91,SW,225,2.9,4.0,60,0.00,,,0.00,WUHU216HW,2013-05-04 11:11:00,
2013-05-04 06:16:00,44.5,31.5,29.91,SSW,203,3.4,4.0,60,0.00,,,0.00,WUHU216HW,2013-05-04 11:16:00,
2013-05-04 06:21:00,44.6,31.7,29.91,SW,225,3.4,4.0,60,0.00,,,0.00,WUHU216HW,2013-05-04 11:21:00,
2013-05-04 06:26:00,44.6,31.7,29.91,SSW,203,3.4,4.3,60,0.00,,,0.00,WUHU216HW,2013-05-04 11:26:00,
2013-05-04 06:31:00,44.6,31.7,29.91,SSW,203,2.7,4.3,60,0.00,,,0.00,WUHU216HW,2013-05-04 11:31:00,
2013-05-04 06:36:00,44.6,31.7,29.91,South,180,2.7,3.6,60,0.00,,,0.00,WUHU216HW,2013-05-04 11:36:00,
2013-05-04 06:41:00,44.6,31.7,29.91,SW,225,2.2,3.4,60,0.00,,,0.00,WUHU216HW,2013-05-04 11:41:00,
2013-05-04 06:47:00,44.6,31.7,29.91,SW,225,2.5,2.9,60,0.00,,,0.00,WUHU216HW,2013-05-04 11:47:00,
2013-05-04 06:52:00,45.4,32.3,29.91,SSW,203,2.2,3.6,60,0.00,,,0.00,WUHU216HW,2013-05-04 11:52:00,
2013-05-04 06:57:00,46.4,33.3,29.91,South,180,2.5,3.6,60,0.00,,,0.00,WUHU216HW,2013-05-04 11:57:00,
2013-05-04 07:02:00,47.2,34.4,29.91,SSW,203,3.4,3.6,61,0.00,,,0.00,WUHU216HW,2013-05-04 12:02:00,
2013-05-04 07:07:00,47.9,34.7,29.91,SSW,203,2.0,3.6,60,0.00,,,0.00,WUHU216HW,2013-05-04 12:07:00,
2013-05-04 07:12:00,48.2,35.1,29.91,South,180,1.8,3.6,60,0.00,,,0.00,WUHU216HW,2013-05-04 12:12:00,
2013-05-04 07:17:00,48.6,34.9,29.91,SW,225,4.0,4.7,59,0.00,,,0.00,WUHU216HW,2013-05-04 12:17:00,
2013-05-04 07:22:00,49.0,35.3,29.91,SSW,203,2.9,4.7,59,0.00,,,0.00,WUHU216HW,2013-05-04 12:22:00,
2013-05-04 07:27:00,49.3,35.2,29.91,SW,225,3.1,4.0,58,0.00,,,0.00,WUHU216HW,2013-05-04 12:27:00,
2013-05-04 07:33:00,49.9,35.6,29.91,SW,225,1.1,3.8,58,0.00,,,0.00,WUHU216HW,2013-05-04 12:33:00,
2013-05-04 07:38:00,50.6,35.8,29.91,SW,225,2.9,3.4,57,0.00,,,0.00,WUHU216HW,2013-05-04 12:38:00,
2013-05-04 07:43:00,51.1,36.4,29.91,SSW,203,2.7,3.6,57,0.00,,,0.00,WUHU216HW,2013-05-04 12:43:00,
2013-05-04 07:48:00,51.8,37.0,29.90,SSW,203,2.9,3.8,57,0.00,,,0.00,WUHU216HW,2013-05-04 12:48:00,
2013-05-04 07:53:00,52.4,37.5,29.90,South,180,2.7,4.0,57,0.00,,,0.00,WUHU216HW,2013-05-04 12:53:00,
2013-05-04 07:58:00,53.3,37.9,29.90,South,180,2.7,4.3,56,0.00,,,0.00,WUHU216HW,2013-05-04 12:58:00,
2013-05-04 08:03:00,54.2,37.8,29.91,South,180,2.7,4.5,54,0.00,,,0.00,WUHU216HW,2013-05-04 13:03:00,
2013-05-04 08:04:00,54.4,38.0,29.91,SSW,203,3.4,4.5,54,0.00,,,0.00,WUHU216HW,2013-05-04 13:04:00,
2013-05-04 08:09:00,54.9,38.4,29.91,SW,225,2.5,5.4,54,0.00,,,0.00,WUHU216HW,2013-05-04 13:09:00,
2013-05-04 08:14:00,55.6,38.7,29.91,SW,225,2.9,5.4,53,0.00,,,0.00,WUHU216HW,2013-05-04 13:14:00,
2013-05-04 08:19:00,56.0,38.5,29.90,WSW,248,5.1,6.0,52,0.00,,,0.00,WUHU216HW,2013-05-04 13:19:00,
2013-05-04 08:24:00,56.2,38.7,29.90,West,270,4.0,7.6,52,0.00,,,0.00,WUHU216HW,2013-05-04 13:24:00,
2013-05-04 08:29:00,56.5,39.1,29.90,SSW,203,5.1,7.6,52,0.00,,,0.00,WUHU216HW,2013-05-04 13:29:00,
2013-05-04 08:34:00,56.5,39.1,29.90,SSW,203,7.4,8.5,52,0.00,,,0.00,WUHU216HW,2013-05-04 13:34:00,
2013-05-04 08:39:00,56.9,39.4,29.90,SSW,203,6.5,10.3,52,0.00,,,0.00,WUHU216HW,2013-05-04 13:39:00,
2013-05-04 08:44:00,57.1,39.6,29.89,South,180,5.8,10.3,52,0.00,,,0.00,WUHU216HW,2013-05-04 13:44:00,
2013-05-04 08:49:00,57.6,39.3,29.89,SSW,203,5.8,9.6,50,0.00,,,0.00,WUHU216HW,2013-05-04 13:49:00,
2013-05-04 08:54:00,58.0,40.0,29.89,WSW,248,4.5,9.2,51,0.00,,,0.00,WUHU216HW,2013-05-04 13:54:00,
2013-05-04 08:59:00,58.3,39.2,29.89,SSW,203,5.4,8.3,49,0.00,,,0.00,WUHU216HW,2013-05-04 13:59:00,
2013-05-04 09:04:00,58.7,39.1,29.90,SW,225,6.5,8.1,48,0.00,,,0.00,WUHU216HW,2013-05-04 14:04:00,
2013-05-04 09:09:00,59.4,38.5,29.90,WSW,248,4.7,7.2,46,0.00,,,0.00,WUHU216HW,2013-05-04 14:09:00,
2013-05-04 09:14:00,59.9,39.0,29.90,SW,225,4.7,9.6,46,0.00,,,0.00,WUHU216HW,2013-05-04 14:14:00,
2013-05-04 09:19:00,60.3,37.6,29.90,SW,225,10.7,10.7,43,0.00,,,0.00,WUHU216HW,2013-05-04 14:19:00,
2013-05-04 09:24:00,60.7,39.1,29.90,WSW,248,5.6,10.7,45,0.00,,,0.00,WUHU216HW,2013-05-04 14:24:00,
2013-05-04 09:29:00,61.4,39.2,29.90,West,270,7.6,7.6,44,0.00,,,0.00,WUHU216HW,2013-05-04 14:29:00,
2013-05-04 09:34:00,61.7,38.9,29.90,West,270,5.4,9.6,43,0.00,,,0.00,WUHU216HW,2013-05-04 14:34:00,
2013-05-04 09:39:00,62.5,39.0,29.90,SW,225,6.9,11.2,42,0.00,,,0.00,WUHU216HW,2013-05-04 14:39:00,
2013-05-04 09:44:00,62.8,37.5,29.90,WNW,293,7.8,11.2,39,0.00,,,0.00,WUHU216HW,2013-05-04 14:44:00,
2013-05-04 09:49:00,62.3,34.7,29.90,WNW,293,6.9,11.0,36,0.00,,,0.00,WUHU216HW,2013-05-04 14:49:00,
2013-05-04 09:54:00,62.5,37.1,29.90,West,270,7.2,11.0,39,0.00,,,0.00,WUHU216HW,2013-05-04 14:54:00,
2013-05-04 09:59:00,61.9,36.6,29.90,WNW,293,7.8,10.1,39,0.00,,,0.00,WUHU216HW,2013-05-04 14:59:00,
2013-05-04 10:04:00,62.5,34.9,29.90,NW,315,7.2,10.1,36,0.00,,,0.00,WUHU216HW,2013-05-04 15:04:00,
2013-05-04 10:09:00,62.3,36.2,29.90,NW,315,8.1,10.3,38,0.00,,,0.00,WUHU216HW,2013-05-04 15:09:00,
2013-05-04 10:14:00,62.3,36.2,29.90,WNW,293,7.6,10.3,38,0.00,,,0.00,WUHU216HW,2013-05-04 15:14:00,
2013-05-04 10:19:00,63.0,37.6,29.90,NW,315,3.6,8.7,39,0.00,,,0.00,WUHU216HW,2013-05-04 15:19:00,
2013-05-04 10:24:00,63.5,35.9,29.90,WNW,293,7.2,10.5,36,0.00,,,0.00,WUHU216HW,2013-05-04 15:24:00,
2013-05-04 10:29:00,63.4,34.3,29.90,WNW,293,5.4,10.5,34,0.00,,,0.00,WUHU216HW,2013-05-04 15:29:00,
2013-05-04 10:34:00,63.9,34.8,29.90,NW,315,8.3,10.5,34,0.00,,,0.00,WUHU216HW,2013-05-04 15:34:00,
2013-05-04 10:39:00,64.1,37.1,29.90,NW,315,4.0,9.2,37,0.00,,,0.00,WUHU216HW,2013-05-04 15:39:00,
2013-05-04 10:44:00,64.8,36.4,29.90,West,270,3.6,8.5,35,0.00,,,0.00,WUHU216HW,2013-05-04 15:44:00,
2013-05-04 10:49:00,64.8,37.8,29.90,WNW,293,4.7,8.5,37,0.00,,,0.00,WUHU216HW,2013-05-04 15:49:00,
2013-05-04 10:54:00,65.3,35.4,29.90,NW,315,4.0,8.5,33,0.00,,,0.00,WUHU216HW,2013-05-04 15:54:00,
2013-05-04 10:59:00,65.3,36.1,29.90,NNW,338,1.8,8.5,34,0.00,,,0.00,WUHU216HW,2013-05-04 15:59:00,
2013-05-04 11:04:00,66.2,38.3,29.90,NNW,338,5.8,6.3,36,0.00,,,0.00,WUHU216HW,2013-05-04 16:04:00,
2013-05-04 11:09:00,66.4,37.1,29.90,North,0,3.4,6.5,34,0.00,,,0.00,WUHU216HW,2013-05-04 16:09:00,
2013-05-04 11:14:00,67.1,37.6,29.90,North,0,2.5,6.5,34,0.00,,,0.00,WUHU216HW,2013-05-04 16:14:00,
2013-05-04 11:19:00,67.7,36.6,29.90,NW,315,5.4,6.3,32,0.00,,,0.00,WUHU216HW,2013-05-04 16:19:00,
2013-05-04 11:24:00,68.2,37.8,29.91,NW,315,2.5,7.8,33,0.00,,,0.00,WUHU216HW,2013-05-04 16:24:00,
2013-05-04 11:29:00,68.2,36.4,29.90,WNW,293,5.4,9.6,31,0.00,,,0.00,WUHU216HW,2013-05-04 16:29:00,
2013-05-04 11:34:00,68.6,37.5,29.90,NW,315,6.9,9.6,32,0.00,,,0.00,WUHU216HW,2013-05-04 16:34:00,
2013-05-04 11:39:00,68.8,36.1,29.90,NNW,338,2.9,9.8,30,0.00,,,0.00,WUHU216HW,2013-05-04 16:39:00,
2013-05-04 11:44:00,69.7,35.9,29.90,WNW,293,8.5,9.8,29,0.00,,,0.00,WUHU216HW,2013-05-04 16:44:00,
2013-05-04 11:49:00,70.4,35.6,29.90,NW,315,4.5,9.8,28,0.00,,,0.00,WUHU216HW,2013-05-04 16:49:00,
2013-05-04 11:54:00,70.6,34.7,29.90,WNW,293,4.7,9.8,27,0.00,,,0.00,WUHU216HW,2013-05-04 16:54:00,
2013-05-04 11:59:00,70.2,31.3,29.90,NW,315,9.6,15.4,24,0.00,,,0.00,WUHU216HW,2013-05-04 16:59:00,
2013-05-04 12:04:00,70.0,32.2,29.90,North,0,4.3,15.4,25,0.00,,,0.00,WUHU216HW,2013-05-04 17:04:00,
2013-05-04 12:09:00,70.2,33.4,29.90,WNW,293,8.5,12.5,26,0.00,,,0.00,WUHU216HW,2013-05-04 17:09:00,
2013-05-04 12:14:00,70.4,30.5,29.89,WNW,293,9.8,11.0,23,0.00,,,0.00,WUHU216HW,2013-05-04 17:14:00,
2013-05-04 12:19:00,70.0,30.2,29.89,NNE,23,6.5,11.0,23,0.00,,,0.00,WUHU216HW,2013-05-04 17:19:00,
2013-05-04 12:24:00,70.6,33.7,29.89,WNW,293,3.4,9.8,26,0.00,,,0.00,WUHU216HW,2013-05-04 17:24:00,
2013-05-04 12:29:00,70.9,32.9,29.89,NW,315,6.7,10.1,25,0.00,,,0.00,WUHU216HW,2013-05-04 17:29:00,
2013-05-04 12:34:00,71.1,33.1,29.89,NW,315,10.5,13.4,25,0.00,,,0.00,WUHU216HW,2013-05-04 17:34:00,
2013-05-04 12:39:00,71.3,31.2,29.89,NNE,23,4.9,13.9,23,0.00,,,0.00,WUHU216HW,2013-05-04 17:39:00,
2013-05-04 12:44:00,71.3,31.2,29.89,NW,315,6.0,13.9,23,0.00,,,0.00,WUHU216HW,2013-05-04 17:44:00,
2013-05-04 12:49:00,71.1,32.1,29.89,NW,315,9.2,11.9,24,0.00,,,0.00,WUHU216HW,2013-05-04 17:49:00,
2013-05-04 12:54:00,71.6,34.6,29.88,NNE,23,5.6,11.4,26,0.00,,,0.00,WUHU216HW,2013-05-04 17:54:00,
2013-05-04 12:59:00,71.5,33.4,29.88,NNW,338,13.6,14.1,25,0.00,,,0.00,WUHU216HW,2013-05-04 17:59:00,
2013-05-04 13:04:00,72.2,35.0,29.88,NW,315,11.4,14.1,26,0.00,,,0.00,WUHU216HW,2013-05-04 18:04:00,
2013-05-04 13:09:00,72.2,33.0,29.88,NW,315,7.2,13.6,24,0.00,,,0.00,WUHU216HW,2013-05-04 18:09:00,
2013-05-04 13:14:00,72.0,33.8,29.88,NNE,23,5.4,12.3,25,0.00,,,0.00,WUHU216HW,2013-05-04 18:14:00,
2013-05-04 13:19:00,72.0,33.8,29.87,NNW,338,6.7,12.3,25,0.00,,,0.00,WUHU216HW,2013-05-04 18:19:00,
2013-05-04 13:24:00,72.0,33.8,29.87,NNW,338,9.2,13.2,25,0.00,,,0.00,WUHU216HW,2013-05-04 18:24:00,
2013-05-04 13:29:00,72.2,33.0,29.87,NNE,23,8.3,13.2,24,0.00,,,0.00,WUHU216HW,2013-05-04 18:29:00,
2013-05-04 13:34:00,72.4,32.1,29.87,NNW,338,5.6,10.3,23,0.00,,,0.00,WUHU216HW,2013-05-04 18:34:00,
2013-05-04 13:39:00,72.4,34.2,29.87,NNW,338,4.0,10.3,25,0.00,,,0.00,WUHU216HW,2013-05-04 18:39:00,
2013-05-04 13:44:00,72.4,35.2,29.87,NW,315,6.0,11.6,26,0.00,,,0.00,WUHU216HW,2013-05-04 18:44:00,
2013-05-04 13:49:00,72.4,33.1,29.87,NW,315,6.5,14.1,24,0.00,,,0.00,WUHU216HW,2013-05-04 18:49:00,
2013-05-04 13:54:00,72.7,35.5,29.87,NW,315,9.8,14.3,26,0.00,,,0.00,WUHU216HW,2013-05-04 18:54:00,
2013-05-04 13:59:00,73.1,32.8,29.87,WNW,293,12.5,19.9,23,0.00,,,0.00,WUHU216HW,2013-05-04 18:59:00,
2013-05-04 14:04:00,72.9,34.7,29.87,NNW,338,5.1,19.9,25,0.00,,,0.00,WUHU216HW,2013-05-04 19:04:00,
2013-05-04 14:09:00,72.7,34.5,29.87,WNW,293,12.3,15.0,25,0.00,,,0.00,WUHU216HW,2013-05-04 19:09:00,
2013-05-04 14:14:00,72.9,33.7,29.87,WNW,293,14.5,16.6,24,0.00,,,0.00,WUHU216HW,2013-05-04 19:14:00,
2013-05-04 14:19:00,72.9,34.7,29.87,NNW,338,5.6,17.2,25,0.00,,,0.00,WUHU216HW,2013-05-04 19:19:00,
2013-05-04 14:24:00,73.1,35.8,29.87,NW,315,11.4,17.2,26,0.00,,,0.00,WUHU216HW,2013-05-04 19:24:00,
2013-05-04 14:29:00,73.4,34.1,29.87,NW,315,4.7,16.3,24,0.00,,,0.00,WUHU216HW,2013-05-04 19:29:00,
2013-05-04 14:34:00,74.0,35.6,29.86,NNW,338,6.0,16.3,25,0.00,,,0.00,WUHU216HW,2013-05-04 19:34:00,
2013-05-04 14:39:00,72.9,34.7,29.86,WNW,293,10.1,10.1,25,0.00,,,0.00,WUHU216HW,2013-05-04 19:39:00,
2013-05-04 14:44:00,72.4,34.2,29.87,NW,315,6.5,14.3,25,0.00,,,0.00,WUHU216HW,2013-05-04 19:44:00,
2013-05-04 14:49:00,73.4,34.1,29.86,WNW,293,8.3,14.3,24,0.00,,,0.00,WUHU216HW,2013-05-04 19:49:00,
2013-05-04 14:54:00,73.1,34.8,29.86,NW,315,8.3,9.8,25,0.00,,,0.00,WUHU216HW,2013-05-04 19:54:00,
2013-05-04 14:59:00,73.4,34.1,29.86,NW,315,15.7,15.7,24,0.00,,,0.00,WUHU216HW,2013-05-04 19:59:00,
2013-05-04 15:04:00,73.4,36.1,29.86,NW,315,10.3,15.7,26,0.00,,,0.00,WUHU216HW,2013-05-04 20:04:00,
2013-05-04 15:09:00,73.3,34.9,29.86,NNW,338,12.1,15.7,25,0.00,,,0.00,WUHU216HW,2013-05-04 20:09:00,
2013-05-04 15:14:00,73.4,33.1,29.86,WNW,293,5.4,13.6,23,0.00,,,0.00,WUHU216HW,2013-05-04 20:14:00,
2013-05-04 15:19:00,73.1,33.8,29.85,NW,315,11.4,13.2,24,0.00,,,0.00,WUHU216HW,2013-05-04 20:19:00,
2013-05-04 15:24:00,73.4,34.1,29.85,NW,315,8.1,14.5,24,0.00,,,0.00,WUHU216HW,2013-05-04 20:24:00,
2013-05-04 15:29:00,73.1,34.8,29.85,NW,315,4.7,14.5,25,0.00,,,0.00,WUHU216HW,2013-05-04 20:29:00,
2013-05-04 15:34:00,73.1,34.8,29.85,NNW,338,4.7,12.3,25,0.00,,,0.00,WUHU216HW,2013-05-04 20:34:00,
2013-05-04 15:39:00,73.3,34.9,29.84,WNW,293,11.4,14.3,25,0.00,,,0.00,WUHU216HW,2013-05-04 20:39:00,
2013-05-04 15:44:00,73.4,35.1,29.84,North,0,5.4,14.3,25,0.00,,,0.00,WUHU216HW,2013-05-04 20:44:00,
2013-05-04 15:49:00,73.8,35.4,29.84,NW,315,4.9,12.1,25,0.00,,,0.00,WUHU216HW,2013-05-04 20:49:00,
2013-05-04 15:54:00,73.6,34.2,29.84,NNW,338,4.5,12.8,24,0.00,,,0.00,WUHU216HW,2013-05-04 20:54:00,
2013-05-04 15:59:00,73.1,35.8,29.83,WNW,293,3.1,12.8,26,0.00,,,0.00,WUHU216HW,2013-05-04 20:59:00,
2013-05-04 16:04:00,73.8,35.4,29.83,NW,315,8.9,13.2,25,0.00,,,0.00,WUHU216HW,2013-05-04 21:04:00,
2013-05-04 16:09:00,73.3,34.9,29.84,North,0,5.8,13.2,25,0.00,,,0.00,WUHU216HW,2013-05-04 21:09:00,
2013-05-04 16:14:00,73.4,34.1,29.83,WNW,293,7.6,10.5,24,0.00,,,0.00,WUHU216HW,2013-05-04 21:14:00,
2013-05-04 16:19:00,73.8,35.4,29.83,NW,315,9.8,13.4,25,0.00,,,0.00,WUHU216HW,2013-05-04 21:19:00,
2013-05-04 16:24:00,73.8,34.4,29.83,NW,315,9.2,14.5,24,0.00,,,0.00,WUHU216HW,2013-05-04 21:24:00,
2013-05-04 16:29:00,73.8,36.5,29.83,WNW,293,13.2,14.5,26,0.00,,,0.00,WUHU216HW,2013-05-04 21:29:00,
2013-05-04 16:34:00,74.0,38.6,29.83,WNW,293,12.1,14.1,28,0.00,,,0.00,WUHU216HW,2013-05-04 21:34:00,
2013-05-04 16:39:00,73.8,35.4,29.83,NW,315,8.1,14.5,25,0.00,,,0.00,WUHU216HW,2013-05-04 21:39:00,
2013-05-04 16:44:00,73.8,34.4,29.83,NNW,338,4.9,14.5,24,0.00,,,0.00,WUHU216HW,2013-05-04 21:44:00,
2013-05-04 16:49:00,73.8,36.5,29.83,WNW,293,9.2,14.3,26,0.00,,,0.00,WUHU216HW,2013-05-04 21:49:00,
2013-05-04 16:54:00,74.0,36.5,29.83,NW,315,8.3,11.6,26,0.00,,,0.00,WUHU216HW,2013-05-04 21:54:00,
2013-05-04 16:59:00,74.0,35.6,29.83,NW,315,9.4,15.7,25,0.00,,,0.00,WUHU216HW,2013-05-04 21:59:00,
2013-05-04 17:04:00,74.2,35.7,29.83,WNW,293,9.8,15.7,25,0.00,,,0.00,WUHU216HW,2013-05-04 22:04:00,
2013-05-04 17:09:00,74.0,35.6,29.83,WNW,293,9.8,15.0,25,0.00,,,0.00,WUHU216HW,2013-05-04 22:09:00,
2013-05-04 17:14:00,74.0,35.6,29.83,NW,315,7.2,13.6,25,0.00,,,0.00,WUHU216HW,2013-05-04 22:14:00,
2013-05-04 17:19:00,73.8,34.4,29.83,NW,315,8.5,14.5,24,0.00,,,0.00,WUHU216HW,2013-05-04 22:19:00,
2013-05-04 17:24:00,73.8,32.4,29.83,NW,315,4.9,14.5,22,0.00,,,0.00,WUHU216HW,2013-05-04 22:24:00,
2013-05-04 17:29:00,73.8,34.4,29.83,NNW,338,5.4,11.4,24,0.00,,,0.00,WUHU216HW,2013-05-04 22:29:00,
2013-05-04 17:34:00,73.6,31.2,29.83,NW,315,8.3,13.0,21,0.00,,,0.00,WUHU216HW,2013-05-04 22:34:00,
2013-05-04 17:39:00,73.4,33.1,29.83,WNW,293,9.8,13.0,23,0.00,,,0.00,WUHU216HW,2013-05-04 22:39:00,
2013-05-04 17:44:00,73.4,32.0,29.83,WNW,293,10.5,18.6,22,0.00,,,0.00,WUHU216HW,2013-05-04 22:44:00,
2013-05-04 17:49:00,73.3,32.0,29.83,NW,315,12.8,18.6,22,0.00,,,0.00,WUHU216HW,2013-05-04 22:49:00,
2013-05-04 17:54:00,73.3,32.0,29.83,NW,315,10.5,16.3,22,0.00,,,0.00,WUHU216HW,2013-05-04 22:54:00,
2013-05-04 17:59:00,73.1,32.8,29.83,NNW,338,13.2,16.3,23,0.00,,,0.00,WUHU216HW,2013-05-04 22:59:00,
2013-05-04 18:04:00,73.1,30.8,29.83,NW,315,13.0,15.0,21,0.00,,,0.00,WUHU216HW,2013-05-04 23:04:00,
2013-05-04 18:09:00,72.7,32.5,29.83,North,0,6.3,15.0,23,0.00,,,0.00,WUHU216HW,2013-05-04 23:09:00,
2013-05-04 18:14:00,73.1,30.8,29.83,NNW,338,6.3,13.0,21,0.00,,,0.00,WUHU216HW,2013-05-04 23:14:00,
2013-05-04 18:19:00,72.7,31.4,29.83,WNW,293,6.0,8.5,22,0.00,,,0.00,WUHU216HW,2013-05-04 23:19:00,
2013-05-04 18:24:00,72.7,31.4,29.83,NW,315,3.4,8.5,22,0.00,,,0.00,WUHU216HW,2013-05-04 23:24:00,
2013-05-04 18:29:00,72.4,30.2,29.83,NNW,338,6.7,10.5,21,0.00,,,0.00,WUHU216HW,2013-05-04 23:29:00,
2013-05-04 18:34:00,72.2,31.0,29.83,NNW,338,4.9,10.5,22,0.00,,,0.00,WUHU216HW,2013-05-04 23:34:00,
2013-05-04 18:38:00,72.2,32.0,29.83,NW,315,3.4,9.6,23,0.00,,,0.00,WUHU216HW,2013-05-04 23:38:00,
2013-05-04 18:44:00,72.2,31.0,29.83,NNW,338,6.5,8.9,22,0.00,,,0.00,WUHU216HW,2013-05-04 23:44:00,
2013-05-04 18:49:00,71.8,32.7,29.83,NNW,338,3.6,7.6,24,0.00,,,0.00,WUHU216HW,2013-05-04 23:49:00,
2013-05-04 18:54:00,71.6,31.5,29.83,North,0,4.3,9.2,23,0.00,,,0.00,WUHU216HW,2013-05-04 23:54:00,
2013-05-04 18:59:00,71.3,31.2,29.84,NW,315,4.9,9.2,23,0.00,,,0.00,WUHU216HW,2013-05-04 23:59:00,
2013-05-04 19:04:00,71.1,31.1,29.84,NW,315,2.7,6.7,23,0.00,,,0.00,WUHU216HW,2013-05-05 00:04:00,
2013-05-04 19:09:00,70.9,31.0,29.84,North,0,2.0,6.7,23,0.00,,,0.00,WUHU216HW,2013-05-05 00:09:00,
2013-05-04 19:14:00,70.7,31.8,29.84,NW,315,2.9,5.4,24,0.00,,,0.00,WUHU216HW,2013-05-05 00:14:00,
2013-05-04 19:19:00,70.4,32.5,29.84,North,0,5.4,5.4,25,0.00,,,0.00,WUHU216HW,2013-05-05 00:19:00,
2013-05-04 19:24:00,69.8,32.0,29.84,North,0,4.7,5.4,25,0.00,,,0.00,WUHU216HW,2013-05-05 00:24:00,
2013-05-04 19:29:00,69.8,32.0,29.84,NNW,338,4.3,5.4,25,0.00,,,0.00,WUHU216HW,2013-05-05 00:29:00,
2013-05-04 19:34:00,69.8,32.0,29.84,NNW,338,4.3,4.7,25,0.00,,,0.00,WUHU216HW,2013-05-05 00:34:00,
2013-05-04 20:00:00,67.0,33.6,29.86,NNE,23,1.6,1.6,29,0.00,,,0.00,WUHU216HW,2013-05-05 01:00:00,
2013-05-04 20:05:00,66.4,33.1,29.86,North,0,2.5,4.0,29,0.00,,,0.00,WUHU216HW,2013-05-05 01:05:00,
2013-05-04 20:10:00,66.2,33.0,29.86,NE,45,0.9,4.0,29,0.00,,,0.00,WUHU216HW,2013-05-05 01:10:00,
2013-05-04 20:15:00,65.5,33.4,29.86,NNE,23,3.4,4.3,30,0.00,,,0.00,WUHU216HW,2013-05-05 01:15:00,
2013-05-04 20:20:00,65.2,33.0,29.86,NNE,23,3.6,4.3,30,0.00,,,0.00,WUHU216HW,2013-05-05 01:20:00,
2013-05-04 20:25:00,64.8,31.8,29.86,NW,315,4.0,5.8,29,0.00,,,0.00,WUHU216HW,2013-05-05 01:25:00,
2013-05-04 20:30:00,64.8,30.8,29.87,North,0,3.4,5.8,28,0.00,,,0.00,WUHU216HW,2013-05-05 01:30:00,
2013-05-04 20:35:00,64.4,31.4,29.87,NNE,23,4.0,4.7,29,0.00,,,0.00,WUHU216HW,2013-05-05 01:35:00,
2013-05-04 20:40:00,64.3,30.2,29.87,NNE,23,2.7,4.7,28,0.00,,,0.00,WUHU216HW,2013-05-05 01:40:00,
2013-05-04 20:42:00,63.7,32.5,29.88,NE,45,13.4,13.4,31,0.00,,,0.00,WUHU216HW,2013-05-05 01:42:00,
2013-05-04 20:45:00,63.7,32.5,29.88,NE,45,13.4,14.3,31,0.00,,,0.00,WUHU216HW,2013-05-05 01:45:00,
2013-05-04 20:50:00,63.7,32.5,29.88,NE,45,13.4,14.3,31,0.00,,,0.00,WUHU216HW,2013-05-05 01:50:00,
2013-05-04 21:00:00,59.8,38.3,29.89,NE,45,6.3,6.3,45,0.00,,,0.00,WUHU216HW,2013-05-05 02:00:00,
2013-05-04 21:05:00,59.8,38.3,29.89,NE,45,6.3,6.3,45,0.00,,,0.00,WUHU216HW,2013-05-05 02:05:00,
2013-05-04 22:00:00,54.4,37.5,29.93,ENE,68,5.4,5.4,53,0.00,,,0.00,WUHU216HW,2013-05-05 03:00:00,
2013-05-04 22:05:00,54.4,37.5,29.93,ENE,68,5.4,5.4,53,0.00,,,0.00,WUHU216HW,2013-05-05 03:05:00,
2013-05-04 23:00:00,52.0,35.4,29.96,NE,45,0.0,0.0,53,0.00,,,0.00,WUHU216HW,2013-05-05 04:00:00,
2013-05-04 23:01:00,52.0,35.4,29.96,NE,45,0.0,0.0,53,0.00,,,0.00,WUHU216HW,2013-05-05 04:01:00,
2013-05-04 23:06:00,51.8,35.6,29.95,NE,45,2.0,2.0,54,0.00,,,0.00,WUHU216HW,2013-05-05 04:06:00,
2013-05-04 23:11:00,51.8,36.1,29.96,NE,45,1.3,2.5,55,0.00,,,0.00,WUHU216HW,2013-05-05 04:11:00,
2013-05-04 23:16:00,51.8,36.1,29.96,NE,45,0.4,2.5,55,0.00,,,0.00,WUHU216HW,2013-05-05 04:16:00,
2013-05-04 23:21:00,51.7,35.9,29.96,NE,45,1.1,2.5,55,0.00,,,0.00,WUHU216HW,2013-05-05 04:21:00,
2013-05-04 23:26:00,51.5,36.2,29.96,NNE,23,0.7,4.0,56,0.00,,,0.00,WUHU216HW,2013-05-05 04:26:00,
2013-05-04 23:31:00,51.5,36.6,29.96,NNE,23,0.4,4.0,57,0.00,,,0.00,WUHU216HW,2013-05-05 04:31:00,
2013-05-04 23:36:00,51.7,36.8,29.95,NNE,23,0.4,1.1,57,0.00,,,0.00,WUHU216HW,2013-05-05 04:36:00,
2013-05-04 23:41:00,51.5,36.6,29.95,NNE,23,0.4,1.1,57,0.00,,,0.00,WUHU216HW,2013-05-05 04:41:00,
2013-05-04 23:46:00,51.3,36.1,29.95,NNE,23,0.0,1.1,56,0.00,,,0.00,WUHU216HW,2013-05-05 04:46:00,
2013-05-04 23:51:00,50.9,35.7,29.95,NNE,23,0.0,0.4,56,0.00,,,0.00,WUHU216HW,2013-05-05 04:51:00,
2013-05-04 23:56:00,50.6,35.4,29.96,NNE,23,0.4,0.4,56,0.00,,,0.00,WUHU216HW,2013-05-05 04:56:00,